Current Version              Previous Version:    01  02  03  04  05  06  07  08  09  10  11  12  13  14  15  16  17  18  19  20  21  22  23  24  25  26  27  28  29  30  
   31  32  33  34  35  36  37  38  39  40  41  42  43  44  45  46  47  48  49  50  51  52  53  54  55  56  57  58  59  60  

[Printable]
451
ASUS44 KFWD 011310
RWRTX
NORTH TEXAS HOURLY WEATHER ROUNDUP
NATIONAL WEATHER SERVICE FORT WORTH TX
700 AM CST SUN FEB 01 2015

NOTE: "FAIR" INDICATES FEW OR NO CLOUDS BELOW 12,000 FEET WITH NO
SIGNIFICANT WEATHER AND/OR OBSTRUCTIONS TO VISIBILITY.

TXZ118-119-011400-
DALLAS/FORT WORTH METROPLEX

CITY           SKY/WX    TMP DP  RH WIND       PRES   REMARKS
DFW AIRPORT    CLOUDY    57  56  96 SW9       29.85R
DALLAS LOVE    CLOUDY    59  57  93 W5        29.85R FOG
FTW MEACHAM    CLOUDY    56  55  97 W3        29.86R FOG
DAL-EXECUTIVE  CLOUDY    61  58  90 W8        29.85R FOG
FTW-ALLIANCE   CLOUDY    54  54 100 W5        29.86R FOG
FTW-SPINKS     CLOUDY    55  55 100 W6        29.88R FOG
ARLINGTON      CLOUDY    59  56  89 W5        29.86R
ADDISON        CLOUDY    57  55  94 W7        29.86R FOG
MESQUITE       LGT RAIN  59  57  94 SW6       29.85  FOG
LANCASTER      CLOUDY    59  57  91 SW3       29.86R
$$

TXZ091>094-102>105-117-120-121-131>134-011400-
NORTH CENTRAL TEXAS

CITY           SKY/WX    TMP DP  RH WIND       PRES   REMARKS
SHRMAN/DENISON CLOUDY    54  54 100 SW5       29.85R FOG
GAINESVILLE    CLOUDY    52  51  96 W6        29.87R
BOWIE          CLOUDY    51  51  98 W8        29.87R
BRIDGEPORT     LGT RAIN  53  53 100 CALM      29.89R
DECATUR        CLOUDY    52  52 100 W5        29.87R FOG
DENTON         CLOUDY    54  53  97 W5        29.85S FOG
MCKINNEY       LGT RAIN  59  57  93 W9        29.84R
GREENVILLE     CLOUDY    59  55  88 S9        29.84S FOG
ROCKWALL       RAIN      59  59  99 S10G18    29.83S
TERRELL        CLOUDY    61  58  90 SW7       29.85R FOG
WAXAHACHIE     CLOUDY    60  60 100 SW8       29.86R
CLEBURNE       CLOUDY    55  55 100 W6        29.88R FOG
GRANBURY       CLOUDY    52  51  96 W5        29.90R FOG
$$

TXZ083>090-098>101-113>116-127>130-139>142-154-155-011400-
WESTERN NORTH TEXAS

CITY           SKY/WX    TMP DP  RH WIND       PRES   REMARKS
WICHITA FALLS  CLOUDY    47  45  93 NW15      29.89R
WF-KICKAPOO    CLOUDY    42  42  99 NW13      29.91R WCI  35
VERNON         CLOUDY    46  43  88 NW12      29.95R
ABILENE        CLOUDY    52  49  89 NW9       29.92R
ABILENE-DYESS  CLOUDY    52  51  96 W7        29.91R
BRECKENRIDGE   CLOUDY    54  54  99 W5        29.89R
GRAHAM         CLOUDY    51  51 100 NW3       29.88R FOG
MINERAL WELLS  FOG       48  48 100 CALM      29.86R VSB 1/4
STEPHENVILLE   CLOUDY    55  53  94 W5        29.90R
COMANCHE       CLOUDY    55  55 100 W10G18    29.88R
BROWNWOOD      FOG       50  50 100 NW5       29.90R VSB<1/4
COLEMAN        FOG       49  49 100 NE5       29.90R VSB 1/4
$$

TXZ143>147-156>162-174-175-011400-
CENTRAL TEXAS

CITY           SKY/WX    TMP DP  RH WIND       PRES   REMARKS
WACO           PTCLDY    58  57  97 S10       29.86R
WACO-TSTC      CLEAR     61  59  94 S12       29.86
WACO-MCGREGOR  MOCLDY    59  54  82 S8        29.88R
HILLSBORO      CLOUDY    60  58  94 S6        29.85R FOG
CORSICANA      CLOUDY    62  59  90 S10       29.86S
MEXIA          CLOUDY    61  59  94 S13       29.86S
HEARNE         CLOUDY    61  60  97 SE5       29.90S
CAMERON        CLOUDY    63  61  93 S9        29.89R
TEMPLE         CLOUDY    61  55  82 S10       29.87R
KILLEEN        CLOUDY    59  59 100 S8        29.88R
KILLEEN-SKYLRK CLOUDY    61  54  77 S8        29.87R
FORT HOOD      CLOUDY    60  59  96 SW7       29.87R
GATESVILLE     MOCLDY    57  57 100 CALM      29.89S FOG
$$

TXZ095>097-106>112-122>126-135>138-148>153-164>167-011400-
EAST TEXAS

CITY           SKY/WX    TMP DP  RH WIND       PRES   REMARKS
PARIS          CLOUDY    57  54  88 SW10      29.82F
SULPHUR SPRNGS CLOUDY    59  59  99 SW10      29.85S FOG
MOUNT PLEASANT CLOUDY    59  58  97 S9        29.86S
GILMER         CLOUDY    58  57  97 S6        29.86S
MINEOLA        CLOUDY    61  61 100 S12       29.86S
TYLER          CLOUDY    61  58  90 SW14      29.86S
LONGVIEW       RAIN      60  57  89 S15       29.86F
MARSHALL       CLOUDY    58  56  92 S8        29.89F
ATHENS         CLOUDY    59  57  94 S6        29.86S
PALESTINE      CLOUDY    60  60 100 S9G16     29.88F FOG
JACKSONVILLE   LGT RAIN  60  60  97 MISG      29.90S
HENDERSON      LGT RAIN  59  58  99 S9G17     29.88F
NACOGDOCHES    CLOUDY    59  55  88 S6        29.91S
LUFKIN         CLOUDY    64  59  83 S8        29.91S
$$

SUPPLEMENTAL OBSERVATIONS (CENTRAL)

CITY           SKY/WX    TMP DP  RH WIND       PRES   REMARKS
CADDO GRASSLND   N/A     55  54  94 W6          N/A
PAT MAYSE LAKE   N/A     55  54  94 W5          N/A
GREENVILLE       N/A     57  55  94 SW9         N/A
CEDAR HILL       N/A     57  55  94 SW2         N/A
PALESTINE        N/A     61  59  94 S7          N/A
MCGREGOR         N/A     59  57  94 S7          N/A
TEMPLE           N/A     61  59  94 SW2         N/A
$$

SUPPLEMENTAL OBSERVATIONS (WEST)

CITY           SKY/WX    TMP DP  RH WIND       PRES   REMARKS
MILLERS CREEK    N/A     48  46  93 NW9         N/A
POSSUM KINGDOM   N/A     52  50  93 W6          N/A
LBJ GRASSLAND    N/A     54  52  94 CALM        N/A
GRANBURY         N/A     52  50  93 NW6         N/A
HAMBY            N/A     52  46  82 W7          N/A
IVIE RESERVOIR   N/A     48  46  93 N7          N/A
COLORADO BEND    N/A     54  52  94 SW3         N/A
$$

SUPPLEMENTAL OBSERVATIONS (EAST)

CITY           SKY/WX    TMP DP  RH WIND       PRES   REMARKS
CLARKSVILLE      N/A     57  55  94 SW9         N/A
TEXARKANA        N/A     55  52  88 S6G14       N/A
GILMER           N/A     59  57  94 S6          N/A
HENDERSON        N/A     59  55  88 S13         N/A
LUFKIN           N/A     61  59  94 MISG        N/A
N SABINE NF      N/A     57  52  82 MISG        N/A
S SABINE NF      N/A     57  54  88 CALM        N/A
$$

SUPPLEMENTAL OBSERVATIONS ARE A COLLECTION OF AUTOMATED INSTRUMENTS
THAT ARE MAINTAINED BY A VARIETY OF FEDERAL AND STATE AGENCIES.
CERTAIN ELEMENTS...SUCH AS HUMIDITY VALUES AND SUSTAINED WIND
SPEEDS...MAY BE APPROXIMATED.